SZ-21 MODULE

Last updated on Sun Jun 21 2026 00:02:11 GMT+0000 (Coordinated Universal Time)

1 66515U 25246C 26171.38315940 .00041738 00000+0 25384-3 0 9999 2 66515 41.4727 287.4171 0005787 13.1539 346.9456 15.76651737 34247
UTC large
Height (km)
Speed (km/s)
/
Latitude / Longitude
Inclination (degrees)
Orbital Period (minutes)
Azimuth
Elevation
Range (km)
Doppler Factor

Next 0 passes for location: London (51.5072 / 0.1276)

No passes found over London.
SZ-21 MODULE